OBJECT H

Satellite information

Favourite Embed

Satellite Type and Status

UNKNOWNIN ORBIT

Key statistics

Satellite OBJECT H at a glance.

Uptime

2025

Days in orbit

Revolutions

≈ 14.9

Per day

Orbit

SSO

Sun Synchronous Orbit

Inclination

97.8

Latest

Satellite identification and parameters

Extended collection of information and parameters for OBJECT H.

Object identification

Identified? True

Debris? False

Object name: OBJECT H

International designator: 2019-093H

Object number (NORAD): 44886

Object ID (CCSDS): 44886

Country: TO BE DETERMINED/UNKNOWN (TBD)

Current information (Y/N): Y

RCS size: MEDIUM

Orbital parameters

Period: 96.475 minutes

Inclination: 97.821 deg

SMA: 6967.93 km

Apoapsis: 599.274 km

Periapsis: 580.316 km

RAAN: 272.0822 deg

Eccentricy: 0.0013604

Argument of periapsis: 132.2847 deg

Mean anomaly: 227.9527 deg

Mean motion: 14.92612587 rev/day

Mean motion (dot): 0.00002445 rev/day2

B* drag term: 0.00024269 1/REarth

Two-line elements (TLE)

Creation date: July 5, 2025, 10:46 p.m.

Reference frame: TEME

Reference center: EARTH

Epoch: July 5, 2025, 8:42 p.m. UTC

TLE line 0: 0 OBJECT H

TLE line 1: 1 44886U 19093H 25186.86318081 .00002445 00000-0 24269-3 0 9990

TLE line 2: 2 44886 97.8210 272.0822 0013604 132.2847 227.9527 14.92612587300476

Live tracking on map

Real-time ground track for satellite OBJECT H.

In-orbit conjunctions

There are no conjunctions computed for OBJECT H, at the moment. Check back to stay up to date, as we update our databases every day.

Go to all conjunctions

Associated space launch

On April 24, 2015, China and Brazil have signed the agreement for the construction of CBERS-4A. It's a third satellite in the continuity to the CBERS program, and a sixth CBERS satellite to be constructed. The CBERS satellites enhance and complement the existing remote sensing systems in an effort to improve our knowledge about the Earth environment and resources.

OBJECT H was lifted into orbit during the mission ‘Long March 4B | CBERS-4A’, on board a Long March 4B space rocket.

The launch took place on Dec. 20, 2019, 3:22 a.m. from Launch Complex 9.

For more information about the launch, click the button.

Launch to space Long March 4B | CBERS-4A
Long March 4B | CBERS-4A

Agency: N/A

Status: Launch Successful

Launch date: Dec. 20, 2019, 3:22 a.m. UTC

Rocket: Long March 4B

Launch pad: Launch Complex 9

Location: Taiyuan Satellite Launch Center, People's Republic of China

...

Latest news about this satellite

News about space launch
Long March 4B lofts CBERS-04A and Ethiopia’s first satellite


Newsletter sign-up

Weekly statistics, charts and insights to help you stay on top of the space industry.